White Plains, CT

6:25 AM EDT on August 20, 2017 (GMT -0400)
Westchester County

Weather History for KHPN - March, 2013

Change the Weather History Date:

Saturday, March 16, 2013

  Actual Average Record
Temperature  
Mean Temperature 34 °F -  
Max Temperature 37 °F 43 °F 76 °F (1990)
Min Temperature 30 °F 28 °F 15 °F (1979)
Degree Days  
Heating Degree Days 32    
Moisture  
Dew Point 23 °F    
Average Humidity 69    
Maximum Humidity 89    
Minimum Humidity 42    
Precipitation  
Precipitation 0.03 in - - ()
Sea Level Pressure  
Sea Level Pressure 29.83 in    
Wind  
Wind Speed 5 mph (NNW)    
Max Wind Speed 9 mph    
Max Gust Speed -    
Visibility 7 miles    
Events Snow    
Averages and records for this station are not official NWS values.
T = Trace of Precipitation, MM = Missing Value Source: NWS Daily Summary

Daily Weather History Graph

Daily Weather History Graph

Search for Another Location

Airport or City:

Trip Planner

Search our weather history database for the weather conditions in past years. The results will help you decide how hot, cold, wet, or windy it might be!

Date:

Astronomy

Mar. 16, 2013 Rise Set
Actual Time 7:04 AM EDT 7:02 PM EDT
Civil Twilight 6:37 AM EDT 7:30 PM EDT
Nautical Twilight 6:05 AM EDT 8:02 PM EDT
Astronomical Twilight 5:32 AM EDT 8:34 PM EDT
Moon 9:29 AM EDT (3/16) No Moon Set
Length of Visible Light 12h 53m
Length of Day
11h 58m
Waxing Crescent, 23% of the Moon is Illuminated
Mar 16
Waxing Crescent
Mar 19
First Quarter
Mar 27
Full
Apr 3
Last Quarter
Apr 10
New

Hourly Weather History & Observations

Time (EDT) Temp. Windchill Dew Point Humidity Pressure Visibility Wind Dir Wind Speed Gust Speed Precip Events Conditions
1:56 AM 37.0 °F 31.6 °F 19.9 °F 50% 29.78 in 10.0 mi WNW 6.9 mph - N/A   Partly Cloudy
2:56 AM 34.0 °F 28.0 °F 21.0 °F 59% 29.79 in 10.0 mi NW 6.9 mph - N/A   Clear
3:56 AM 35.1 °F 27.9 °F 19.0 °F 52% 29.80 in 10.0 mi WNW 9.2 mph - N/A   Clear
4:56 AM 33.1 °F 26.9 °F 18.0 °F 54% 29.81 in 10.0 mi NW 6.9 mph - N/A   Clear
5:56 AM 30.9 °F - 18.0 °F 59% 29.83 in 10.0 mi Calm Calm - N/A   Clear
6:56 AM 30.9 °F 25.2 °F 17.1 °F 57% 29.84 in 10.0 mi North 5.8 mph - N/A   Clear
7:56 AM 32.0 °F 25.6 °F 17.1 °F 54% 29.85 in 10.0 mi North 6.9 mph - N/A   Mostly Cloudy
8:56 AM 32.0 °F 26.4 °F 18.0 °F 56% 29.87 in 10.0 mi NNE 5.8 mph - N/A   Mostly Cloudy
9:56 AM 33.1 °F 28.7 °F 17.1 °F 52% 29.85 in 10.0 mi Variable 4.6 mph - N/A   Mostly Cloudy
10:56 AM 34.0 °F 31.0 °F 16.0 °F 48% 29.85 in 10.0 mi NNE 3.5 mph - N/A   Mostly Cloudy
11:56 AM 35.1 °F 31.0 °F 16.0 °F 46% 29.84 in 10.0 mi NW 4.6 mph - N/A   Overcast
12:56 PM 37.0 °F - 16.0 °F 42% 29.82 in 10.0 mi Calm Calm - N/A   Overcast
1:56 PM 33.1 °F 26.9 °F 23.0 °F 66% 29.82 in 3.0 mi SSE 6.9 mph - 0.00 in Snow Light Snow
2:03 PM 32.0 °F 26.4 °F 24.8 °F 75% 29.80 in 2.0 mi South 5.8 mph - 0.00 in Snow Light Snow
2:56 PM 30.9 °F - 28.0 °F 89% 29.82 in 0.8 mi Calm Calm - 0.02 in Snow Light Snow
3:31 PM 30.2 °F 23.4 °F 26.6 °F 86% 29.78 in 1.5 mi North 6.9 mph - 0.01 in Snow Light Snow
3:56 PM 30.9 °F 25.2 °F 27.0 °F 85% 29.81 in 1.5 mi North 5.8 mph - 0.01 in Snow Light Snow
4:56 PM 32.0 °F - 27.0 °F 82% 29.79 in 2.5 mi Calm Calm - 0.00 in Snow Light Snow
4:58 PM 30.2 °F - 26.6 °F 86% 29.77 in 3.0 mi Calm Calm - 0.00 in Snow Light Snow
5:16 PM 30.2 °F 25.4 °F 26.6 °F 86% 29.77 in 6.0 mi North 4.6 mph - 0.00 in   Overcast
5:56 PM 30.9 °F - 26.1 °F 82% 29.81 in 1.5 mi Calm Calm - 0.00 in Snow Light Snow
6:56 PM 30.9 °F 27.5 °F 27.0 °F 85% 29.81 in 4.0 mi North 3.5 mph - 0.00 in Snow Light Snow
7:56 PM 32.0 °F - 27.0 °F 82% 29.84 in 10.0 mi Calm Calm - 0.00 in   Overcast
8:56 PM 30.9 °F 27.5 °F 26.1 °F 82% 29.86 in 5.0 mi NW 3.5 mph - 0.00 in Snow Light Snow
9:56 PM 30.9 °F 27.5 °F 27.0 °F 85% 29.88 in 10.0 mi NW 3.5 mph - 0.00 in   Overcast
10:56 PM 32.0 °F 26.4 °F 26.1 °F 79% 29.89 in 10.0 mi NW 5.8 mph - N/A   Overcast
11:56 PM 30.9 °F 24.3 °F 26.1 °F 82% 29.91 in 10.0 mi NW 6.9 mph - N/A   Overcast